Home > Weather > Eidsvoll > Past weeks

Flag for Norway Past Weather in Eidsvoll, Norway — Yesterday and Last 2 Weeks

Now
64 °F

Sunny.


Feels Like: 64 °F
Forecast: 49 / 71 °F
Wind: 5 mph from North

Location: Oslo Gardermoen Airport

Current Time: Jun 1, 2016 at 12:01:32 AM

Latest Report: May 31, 2016 at 11:20 PM


Visibility: 10 mi

Pressure: 30.18 "Hg

Humidity: 60%

Dew Point: 50 °F

Location of EidsvollLocation

Past Weather in Eidsvoll — Graph

°F

Eidsvoll Temperature Yesterday

Maximum temperature yesterday: 77 °F (at 5:20 PM)
Minimum temperature yesterday: 50 °F (at 2:50 AM)
Average temperature yesterday: 65 °F

High & Low Weather Summary for the Past Weeks

 TemperatureHumidityPressure
High77 °F (May 31, 5:20 PM)100% (May 22, 4:50 AM)30.21 "Hg (May 22, 4:50 AM)
Low34 °F (May 17, 3:20 AM)23% (May 17, 5:20 PM)29.62 "Hg (May 17, 3:50 PM)
Average54 °F69%29.95 "Hg
* Reported May 16 10:20 PM — May 31 10:50 PM, Eidsvoll, Weather by CustomWeather, © 2016

Note: Actual official high and low records may vary slightly from our data, if they occured in-between our weather recording intervals... More about our weather records

Advertising

Eidsvoll Weather History for the Previous 24 Hours

Scroll right to see more
 ConditionsComfort  
Time TempWeatherWind HumidityBarometerVisibility
10:50 PM
Tue, May 31
68 °FSunny.No wind53%30.18 "Hg10 mi
10:20 PM72 °FSunny.1 mph41%30.18 "Hg10 mi
9:50 PM73 °FSunny.1 mph41%30.15 "Hg10 mi
9:20 PM73 °FSunny.2 mph41%30.15 "Hg10 mi
8:50 PM75 °FSunny.No wind36%30.15 "Hg10 mi
8:20 PM77 °FSunny.2 mph32%30.15 "Hg10 mi
7:50 PM77 °FSunny.1 mph32%30.15 "Hg10 mi
7:20 PM77 °FSunny.2 mph34%30.15 "Hg10 mi
6:50 PM77 °FPassing clouds.5 mph36%30.15 "HgN/A
6:20 PM77 °FSunny.3 mph34%30.15 "Hg10 mi
5:50 PM77 °FSunny.2 mph30%30.15 "Hg10 mi
5:20 PM77 °FSunny.3 mph32%30.15 "Hg10 mi
4:50 PM75 °FSunny.2 mph34%30.15 "Hg10 mi
4:20 PM75 °FSunny.6 mph34%30.15 "Hg10 mi
3:50 PM75 °FSunny.3 mph34%30.18 "Hg10 mi
2:50 PM73 °FSunny.1 mph38%30.18 "Hg10 mi
2:20 PM72 °FSunny.5 mph44%30.18 "Hg10 mi
1:50 PM72 °FPassing clouds.5 mph41%30.18 "HgN/A
1:20 PM72 °FPassing clouds.5 mph44%30.18 "HgN/A
12:50 PM70 °FSunny.3 mph46%30.21 "Hg10 mi
12:20 PM70 °FPassing clouds.7 mph43%30.21 "HgN/A
11:50 AM68 °FPassing clouds.9 mph49%30.21 "HgN/A
11:20 AM68 °FPassing clouds.9 mph53%30.21 "HgN/A
10:50 AM66 °FPassing clouds.8 mph56%30.21 "HgN/A
10:20 AM64 °FPassing clouds.6 mph60%30.21 "HgN/A
9:50 AM64 °FPassing clouds.8 mph60%30.21 "HgN/A
9:20 AM63 °FSunny.8 mph64%30.21 "Hg10 mi
8:50 AM61 °FPassing clouds.8 mph68%30.21 "HgN/A
8:20 AM61 °FPassing clouds.10 mph68%30.21 "HgN/A
7:50 AM59 °FSunny.9 mph72%30.21 "Hg10 mi
7:20 AM57 °FSunny.8 mph77%30.21 "Hg10 mi
6:50 AM55 °FPassing clouds.6 mph82%30.21 "HgN/A
6:20 AM54 °FScattered clouds.5 mph88%30.21 "HgN/A
5:50 AM52 °FScattered clouds.6 mph94%30.21 "HgN/A
5:20 AM52 °FScattered clouds.3 mph88%30.21 "HgN/A
4:50 AM52 °FPassing clouds.3 mph88%30.21 "HgN/A
4:20 AM52 °FPassing clouds.5 mph88%30.21 "HgN/A
3:50 AM52 °FPassing clouds.3 mph88%30.21 "HgN/A
3:20 AM50 °FPassing clouds.1 mph94%30.21 "HgN/A
2:50 AM50 °FPassing clouds.3 mph94%30.21 "HgN/A
2:20 AM52 °FPassing clouds.3 mph88%30.21 "HgN/A
1:50 AM52 °FClear.3 mph88%30.21 "Hg10 mi
1:20 AM52 °FClear.3 mph82%30.21 "Hg10 mi
12:50 AM52 °FClear.2 mph88%30.18 "Hg10 mi
12:20 AM52 °FClear.3 mph82%30.18 "Hg10 mi
Weather by CustomWeather, © 2016

See weather overviewHow to use our weather pages